Change the Weather History Date:

Thursday, July 4, 2013

  Actual Average Record
Temperature  
Mean Temperature 71 °F 71 °F  
Max Temperature 80 °F 80 °F 102 °F (2012)
Min Temperature 61 °F 63 °F 45 °F (1963)
Degree Days  
Heating Degree Days 0 1  
Month to date heating degree days 3 4  
Since 1 June heating degree days 90 88  
Since 1 July heating degree days 3 4  
Cooling Degree Days 6 7  
Month to date cooling degree days 8 27  
Year to date cooling degree days 146 177  
Since 1 June cooling degree days 107 147  
Growing Degree Days 20 (Base 50)    
Moisture  
Dew Point 61 °F    
Average Humidity 73    
Maximum Humidity 100    
Minimum Humidity 45    
Precipitation  
Precipitation 0.00 in 0.12 in 1.08 in (1904)
Month to date precipitation 0.34 0.50  
Year to date precipitation 25.65 17.04  
Snow  
Snow 0.00 in 0.00 in 0.00 in ()
Month to date snowfall 0.0 0.0  
Since 1 June snowfall 0.0 0.0  
Since 1 July snowfall 0.0 0.0  
Snow Depth 0.00 in    
Sea Level Pressure  
Sea Level Pressure 30.07 in    
Wind  
Wind Speed 7 mph (South)    
Max Wind Speed 18 mph    
Max Gust Speed 23 mph    
Visibility 5 miles    
Events Fog    
T = Trace of Precipitation, MM = Missing Value Source: NWS Daily Summary

Daily Weather History Graph

Daily Weather History Graph

Search for Another Location

Airport or City:

Trip Planner

Search our weather history database for the weather conditions in past years. The results will help you decide how hot, cold, wet, or windy it might be!

Date:

Astronomy

Jul. 04, 2013 Rise Set
Actual Time 5:18 AM CDT 8:33 PM CDT
Civil Twilight 4:43 AM CDT 9:08 PM CDT
Nautical Twilight 3:58 AM CDT 9:53 PM CDT
Astronomical Twilight 3:03 AM CDT 10:48 PM CDT
Moon 2:37 AM CDT (7/4) 5:36 PM CDT (7/4)
Length of Visible Light 16h 25m
Length of Day
15h 15m
Waning Crescent, 11% of the Moon is Illuminated
Jul 4
Waning Crescent
Jul 8
New
Jul 15
First Quarter
Jul 22
Full
Jul 29
Last Quarter

Hourly Weather History & Observations

Time (CDT) Temp. Dew Point Humidity Pressure Visibility Wind Dir Wind Speed Gust Speed Precip Events Conditions
12:14 AM 60.8 °F 60.8 °F 100% 30.07 in 0.5 mi Calm Calm - N/A Fog Fog
12:33 AM 60.8 °F 60.8 °F 100% 30.07 in 0.5 mi South 5.8 mph - N/A   Mist
12:52 AM 61.0 °F 60.1 °F 97% 30.07 in 0.5 mi South 5.8 mph - N/A   Overcast
12:59 AM 60.8 °F 60.8 °F 100% 30.07 in 1.0 mi South 4.6 mph - N/A   Overcast
1:52 AM 62.1 °F 61.0 °F 96% 30.06 in 1.0 mi South 5.8 mph - N/A   Overcast
2:50 AM 62.6 °F 60.8 °F 94% 30.06 in 1.5 mi SSW 4.6 mph - N/A   Overcast
2:52 AM 62.1 °F 61.0 °F 96% 30.06 in 1.5 mi SSW 4.6 mph - N/A   Overcast
3:18 AM 62.6 °F 60.8 °F 94% 30.06 in 1.5 mi SSW 5.8 mph - N/A   Overcast
3:52 AM 62.1 °F 61.0 °F 96% 30.06 in 1.5 mi SSW 5.8 mph - N/A   Mostly Cloudy
4:06 AM 62.6 °F 60.8 °F 94% 30.06 in 0.5 mi SW 3.5 mph - N/A   Overcast
4:52 AM 62.1 °F 61.0 °F 96% 30.07 in 0.5 mi SW 3.5 mph - N/A   Mostly Cloudy
5:12 AM 62.6 °F 60.8 °F 94% 30.07 in 1.5 mi Calm Calm - N/A   Mostly Cloudy
5:28 AM 60.8 °F 60.8 °F 100% 30.08 in 1.5 mi South 3.5 mph - N/A   Scattered Clouds
5:52 AM 61.0 °F 60.1 °F 97% 30.09 in 0.5 mi SSW 5.8 mph - N/A   Scattered Clouds
6:15 AM 60.8 °F 60.8 °F 100% 30.09 in 0.5 mi SSW 3.5 mph - N/A Fog Fog
6:48 AM 62.6 °F 60.8 °F 94% 30.09 in 1.0 mi Calm Calm - N/A   Mostly Cloudy
6:52 AM 62.1 °F 61.0 °F 96% 30.09 in 1.0 mi Calm Calm - N/A   Mostly Cloudy
6:59 AM 62.6 °F 60.8 °F 94% 30.09 in 1.8 mi South 3.5 mph - N/A   Mostly Cloudy
7:19 AM 62.6 °F 62.6 °F 100% 30.10 in 1.8 mi SSW 4.6 mph - N/A   Scattered Clouds
7:27 AM 64.4 °F 62.6 °F 94% 30.10 in 5.0 mi Calm Calm - N/A   Partly Cloudy
7:52 AM 66.0 °F 62.1 °F 87% 30.11 in 8.0 mi SSW 4.6 mph - N/A   Partly Cloudy
8:52 AM 69.1 °F 60.1 °F 73% 30.10 in 10.0 mi WSW 5.8 mph - N/A   Clear
9:52 AM 73.9 °F 59.0 °F 59% 30.09 in 10.0 mi Variable 3.5 mph - N/A   Clear
10:52 AM 75.9 °F 55.9 °F 50% 30.08 in 10.0 mi Variable 3.5 mph - N/A   Scattered Clouds
11:52 AM 77.0 °F 62.1 °F 60% 30.09 in 10.0 mi SE 11.5 mph - N/A   Scattered Clouds
12:52 PM 77.0 °F 59.0 °F 54% 30.08 in 10.0 mi ESE 15.0 mph - N/A   Scattered Clouds
1:52 PM 77.0 °F 57.0 °F 50% 30.07 in 10.0 mi SE 12.7 mph 21.9 mph N/A   Scattered Clouds
2:52 PM 78.1 °F 55.9 °F 46% 30.06 in 10.0 mi SE 13.8 mph - N/A   Scattered Clouds
3:52 PM 77.0 °F 59.0 °F 54% 30.06 in 10.0 mi SE 15.0 mph - N/A   Scattered Clouds
4:52 PM 78.1 °F 62.1 °F 58% 30.05 in 8.0 mi SE 10.4 mph - N/A   Scattered Clouds
5:52 PM 77.0 °F 63.0 °F 62% 30.04 in 9.0 mi SE 9.2 mph - N/A   Mostly Cloudy
6:52 PM 75.0 °F 63.0 °F 66% 30.04 in 9.0 mi ESE 6.9 mph - N/A   Mostly Cloudy
7:52 PM 72.0 °F 63.0 °F 73% 30.03 in 8.0 mi SE 4.6 mph - N/A   Mostly Cloudy
8:52 PM 69.1 °F 63.0 °F 81% 30.03 in 6.0 mi SSE 5.8 mph - N/A   Haze
9:52 PM 68.0 °F 62.1 °F 81% 30.04 in 7.0 mi SSE 3.5 mph - N/A   Partly Cloudy
10:52 PM 69.1 °F 63.0 °F 81% 30.04 in 6.0 mi SSW 5.8 mph - N/A   Haze
11:52 PM 70.0 °F 63.0 °F 78% 30.05 in 7.0 mi SSW 4.6 mph - N/A   Partly Cloudy